Location: Newark
(32.2136°N, 35.2820°E)
Time: 22:19:13
(UTC+00:00)

Envisat - Visible Passes

Search period start: 22 September 2019 00:00
Search period end: 02 October 2019 00:00
Orbit: 764 x 766 km, 98.1° (Epoch: 22 September)

Date Brightness Start Highest point End Pass type
(mag) Time Alt. Az. Time Alt. Az. Time Alt. Az.
22 Sep 4.4 16:26:44 10° S 16:31:31 42° W 16:36:18 10° NNW visible
23 Sep 3.0 15:49:40 10° SSE 15:54:44 79° ENE 15:59:49 10° N visible
24 Sep 5.5 16:53:13 10° SSW 16:57:07 22° W 17:01:03 10° NW visible
25 Sep 3.8 16:15:16 10° S 16:20:13 55° W 16:25:13 10° NNW visible
26 Sep 6.2 17:21:10 10° WSW 17:22:50 11° W 17:24:30 10° WNW visible
27 Sep 5.1 16:41:27 10° SSW 16:45:49 29° W 16:50:12 10° NW visible
28 Sep 3.3 16:03:55 10° S 16:08:58 72° WSW 16:14:02 10° NNW visible
29 Sep 6.0 17:08:32 10° SW 17:11:28 15° W 17:14:26 10° WNW visible
30 Sep 4.6 16:29:50 10° SSW 16:34:31 38° W 16:39:13 10° NNW visible
01 Oct 3.0 15:52:38 10° SSE 15:57:43 87° ENE 16:02:48 10° NNW visible
